www.pogodaiklimat.ru

Погода и климат >> Архив погоды >> Филиппины >> Дает


ПОГОДА в Даете

  • Прогноз погоды в Даете
  • Монитор погоды в Даете

АРХИВ ПОГОДЫ в Даете

Время (UTC), дата Ветер
(напр.,м/с)
 
Видим.   Явления Облачность Т
(С)
Тd
(С)
f
(%)
Тe
(С)
Тes
(С)
Комфортность P
(гПа)
Po
(гПа)
Тmin
(С)
Tmax
(С)
R
(мм)
R24
(мм)
S
(см)
21 16.09 С 1 8000 м 9/4 450 м
[Cu Sc Ac As]
+26.1 +25.3 95 +38 +38 очень
душно
1005.6 1005.1
00 17.09 штиль 0 20 км мгла {туман} 10/1 450 м
[Cu med, cong Ac As]
+27.5 +26.2 93 +42 +44 опасность
перегрева
1007.5 1007.0 +24.8 0.0
03 17.09 Ю 1 20 км мгла {туман} 10/5 450 м
[Cu Sc Ac As]
+29.8 +26.4 82 +46 +49 опасность
перегрева
1007.4 1006.9 0.3
06 17.09 СВ 2 10 км дождь {ливн. осадки, туман} 10/5 450 м
[Cu Sc Ac As]
+27.2 +26.4 95 +41 +44 опасность
перегрева
1005.6 1005.1 10
09 17.09 СЗ 2 10 км слаб. ливневой дождь {гроза} 10/5 450 м
[Cu Sc As op]
+27.0 +25.6 92 +40 +40 очень
душно
1005.2 1005.2 3
12 17.09 Ю 1 5000 м в посл. час ливневой дождь {гроза} 10/5 450 м
[Cu Sc Ac As]
+25.6 +25.4 99 +37 +37 очень
душно
1007.6 1007.1 +29.0 49
15 17.09 Ю 1 5000 м осадки на расстоянии 10/5 450 м
[Cu Sc Ac As]
+25.4 +25.3 99 +37 +37 очень
душно
1008.4 1007.9 5
18 17.09 Ю 1 6000 м 10/5 450 м
[Cu Sc Ac As]
+25.2 +25.1 99 +36 +36 очень
душно
1006.5 1006.0 6
21 17.09 Ю 2 9000 м 10/4 450 м
[Cu Sc Ac As]
+25.6 +25.4 99 +37 +37 очень
душно
1005.4 1004.9
00 18.09 СЗ 1 18 км мгла {туман} 9/3 450 м
[Cu med, cong Ac trans Ci fib]
+27.0 +26.4 97 +41 +44 опасность
перегрева
1008.7 1008.2 +23.8 65
03 18.09 ЮЗ 4 18 км слаб. ливневой дождь {туман} 9/5 450 м
[Cu Sc Ac As]
+28.2 +26.2 89 +43 +46 опасность
перегрева
1008.1 1007.6 0.0
06 18.09 ЮЗ 4 18 км слаб. ливневой дождь {туман} 9/5 450 м
[Cb cap Ac As]
+28.0 +25.9 88 +42 +44 опасность
перегрева
1006.4 1005.9
09 18.09 Ю 4 12 км слаб. ливневой дождь {туман} 10/5 450 м
[Cu Sc As op]
+27.0 +26.4 97 +41 +41 опасность
перегрева
1006.6 1006.1 0.2
12 18.09 Ю 2 6000 м в посл. час ливневой дождь {туман} 10/5 450 м
[Cu Sc Ac As]
+25.8 +25.3 97 +37 +37 очень
душно
1008.5 1008.0 +29.0 0.8
15 18.09 штиль 0 4000 м слаб. ливневой дождь 10/5 450 м
[Cu Sc As op]
+25.2 +24.6 96 +35 +35 очень
душно
1009.1 1008.6 0.5
18 18.09 штиль 0 4000 м в посл. час дождь {ливн. осадки} 10/5 450 м
[Cu Sc As op]
+24.8 +23.7 94 +34 +34 очень
душно
1007.7 1007.2 3
21 18.09 Ю 6 5000 м в посл. час ливневой дождь 10/5 450 м
[Cu Sc As op]
+25.0 +24.3 96 +35 +35 очень
душно
1007.9 1007.4 0.6
00 19.09 Ю 2 12 км осадки на расстоянии {ливн. осадки} 10/4 450 м
[Cu Sc Ac As]
+26.7 +25.1 91 +38 +40 очень
душно
1010.0 1009.5 +29.0 4
03 19.09 Ю 2 18 км 9/5 450 м
[Cu med, cong Ac As]
+28.8 +26.2 86 +44 +48 опасность
перегрева
1009.0 1008.5
06 19.09 Ю 2 18 км осадки на расстоянии {туман} 10/5 450 м
[Cu Sc Ac As]
+29.6 +26.5 83 +45 +48 опасность
перегрева
1007.5 1007.0
09 19.09 Ю 2 18 км в посл. час ливневой дождь {туман} 10/5 450 м
[Cu Sc Ac As]
+27.2 +25.6 91 +40 +40 очень
душно
1007.5 1007.0 0.0
12 19.09 Ю 2 6000 м слаб. ливневой дождь {туман} 10/5 450 м
[Cu Sc As op]
+26.0 +25.4 97 +38 +38 очень
душно
1009.2 1008.7 +30.0 0.6
15 19.09 Ю 1 2000 м осадки на расстоянии {ливн. осадки} 10/5 450 м
[Cu Sc Ac As]
+25.2 +24.1 94 +35 +35 очень
душно
1008.7 1008.2 0.6
18 19.09 штиль 0 4000 м осадки на расстоянии {ливн. осадки} 10/4 450 м
[Cu Sc Ac As]
+25.4 +24.3 94 +35 +35 очень
душно
1007.7 1007.2 0.6
21 19.09 штиль 0 10 км осадки на расстоянии {ливн. осадки} 10/4 450 м
[Cu Sc Ac As]
+25.4 +24.7 96 +36 +36 очень
душно
1007.4 1006.9 0.0
00 20.09 штиль 0 16 км {ливн. осадки} 9/4 450 м
[Cu med, cong Ac trans]
+27.3 +25.0 87 +39 +42 очень
душно
1007.9 1007.4 +24.0 1
03 20.09 СЗ 1 20 км 9/4 450 м
[Cu med, cong Ac trans]
+30.6 +26.7 80 +48 +55 опасность
перегрева
1007.4 1006.9
06 20.09 ЮЗ 2 16 км слаб. ливневой дождь 10/5 450 м
[Cb calv Ac As]
+28.8 +26.3 86 +44 +46 опасность
перегрева
1005.7 1005.2 0.0
09 20.09 Ю 2 16 км в посл. час ливневой дождь {гроза} 10/5 450 м
[Cb calv Ac As]
+25.2 +24.6 96 +35 +35 очень
душно
1006.2 1005.7 3
12 20.09 Ю 2 4000 м {гроза, ливн. осадки} 8/4 450 м
[Cu med, cong Ac As]
+25.0 +24.8 99 +35 +35 очень
душно
1006.8 1006.3 +31.0 3
15 20.09 Ю 1 4000 м осадки на расстоянии 10/4 450 м
[Cu Sc Ac As]
+25.5 +25.1 98 +37 +37 очень
душно
1007.2 1006.7
18 20.09 Ю 2 6000 м 10/3 450 м
[Cu med, cong Ac As]
+26.0 +24.7 93 +37 +37 очень
душно
1006.2 1005.7
21 20.09 Ю 2 10 км осадки на расстоянии 10/4 450 м
[Cu Sc Ac As]
+25.8 +24.0 90 +36 +36 очень
душно
1006.4 1005.9
00 21.09 Ю 4 20 км мгла {туман} 10/1 450 м
[Cu med, cong Ac As]
+27.8 +26.5 93 +43 +44 опасность
перегрева
1008.4 1007.9 +24.0 3
03 21.09 Ю 5 20 км мгла {туман} 10/3 450 м
[Cu med, cong Ac As]
+31.0 +26.5 77 +47 +50 опасность
перегрева
1008.4 1007.9
06 21.09 ЮЗ 3 18 км осадки на расстоянии {туман} 10/5 450 м
[Cu Sc Ac trans Cs]
+31.0 +26.9 79 +48 +51 опасность
перегрева
1006.8 1006.3
09 21.09 Ю 3 15 км мгла {туман} 6/3 450 м
[Cu med, cong Ac trans Ci sp]
+29.6 +26.2 82 +45 +45 опасность
перегрева
1007.5 1007.0
12 21.09 Ю 2 5000 м {туман} 6/3 450 м
[Cu med, cong Ac As]
+27.0 +25.7 93 +40 +40 очень
душно
1009.5 1009.0 +32.2
15 21.09 Ю 1 4000 м 8/3 450 м
[Cu med, cong Ac trans]
+26.0 +24.8 93 +37 +37 очень
душно
1010.7 1010.2
18 21.09 штиль 0 6000 м 9/1 450 м
[Cu med, cong Ac trans Cs]
+24.8 +23.4 92 +33 +33 очень
душно
1010.8 1010.3
21 21.09 штиль 0 10 км 6/1 450 м
[Cu med, cong Ac trans Cs]
+23.6 +22.5 94 +31 +31 очень
душно
1010.3 1009.8
00 22.09 ЮЗ 3 25 км мгла {туман} 4/1 450 м
[Cu med, cong Ci fib]
+26.2 +24.6 91 +37 +41 очень
душно
1011.7 1011.2 +22.7
03 22.09 Ю 2 20 км мгла {туман} 3/3 450 м
[Cu med, cong Ci fib]
+31.8 +27.6 79 +51 +65 опасность
перегрева
1011.8 1011.3
06 22.09 ЮВ 3 18 км мгла {туман} 5/5 450 м
[Cu med, cong]
+32.6 +28.1 77 +53 +59 опасность
перегрева
1009.7 1009.2
09 22.09 Ю 2 15 км мгла {туман} 4/3 450 м
[Cu med, cong Ci fib]
+31.2 +25.9 73 +46 +47 опасность
перегрева
1010.0 1009.5
12 22.09 штиль 0 5000 м {туман} 3/3 450 м
[Cu med, cong]
+27.5 +25.5 89 +40 +40 очень
душно
1012.8 1012.3 +34.4
15 22.09 Ю 1 4000 м 1/1 450 м
[Cu med, cong]
+26.0 +25.4 97 +38 +38 очень
душно
1013.7 1013.2
18 22.09 Ю 2 4000 м 3/3 450 м
[Cu med, cong]
+25.0 +24.6 98 +35 +35 очень
душно
1012.3 1011.8
21 22.09 штиль 0 8000 м 6/3 450 м
[Cu med, cong]
+24.0 +23.8 99 +33 +33 очень
душно
1012.0 1011.5
00 23.09 Ю 1 12 км мгла {туман} 3/1 300 м
[Cu med, cong Ci fib]
+27.0 +26.4 97 +41 +47 опасность
перегрева
1014.4 1013.9 +23.8
03 23.09 В 1 12 км мгла {туман} 3/3 450 м
[Cu med, cong]
+30.0 +27.4 86 +48 +64 опасность
перегрева
1014.3 1013.8
06 23.09 СВ 2 12 км мгла {туман} 3/3 450 м
[Cu med, cong]
+31.0 +26.1 75 +46 +57 опасность
перегрева
1012.6 1012.1
09 23.09 СВ 2 12 км мгла {туман} 5/3 450 м
[Cu med, cong Ci sp]
+29.8 +26.4 82 +46 +46 опасность
перегрева
1013.1 1012.6
12 23.09 В 1 4000 м в посл. час ливневой дождь {туман} 6/3 450 м
[Cu med, cong Ac As]
+28.0 +26.7 93 +44 +44 опасность
перегрева
1014.4 1013.9 +32.0
15 23.09 З 1 5000 м 1/1 450 м
[Cu med, cong]
+27.7 +25.6 88 +41 +41 опасность
перегрева
1013.8 1013.3

 

Местоположение метеостанции Дает (Филиппины): широта 14.13 долгота 122.98 высота над уровнем моря 4 м.

В архиве по умолчанию представлена погода в Даете за последнюю неделю. Архивные данные за месяц целиком и за предыдущие месяцы, начиная с января 2011 года, Вы можете получить, выбрав интересующий диапазон дат из раскрывающегося списка и нажав кнопку "Ввод!".


*Определитесь, кто Вы:
робот инопланетянин человек

Внимание! Время в таблицах - всемирное. Для получения местного времени необходимо прибавить поправку, которая равна 8 ч.

Смотрите также архив погоды в соседних городах и на ближайших метеорологических станциях:

Погода на Алабате (Филиппины) (105 км)
Погода в Легаспи (Филиппины) (138 км)
Погода в Вираке (Филиппины) (148 км)
Погода в Тайябасе (Филиппины) (151 км)
Погода в Инфанте (Филиппины) (159 км)
Погода в Танае (Филиппины) (180 км)
Погода в Ромблоне (Филиппины) (189 км)
Погода в Масбате (Филиппины) (207 км)
Погода на Амбулонге (Филиппины) (208 км)
Погода в Калапане (Филиппины) (210 км)

Пояснения к столбцам:

Ветер - указаны скорость ветра в м/с - средняя за 10 мин, порывы в срок и между сроками (в фигурных скобках) и направление, откуда дует ветер: С - северный, СВ - северо-восточный, В - восточный, ЮВ - юго-восточный, Ю - южный, ЮЗ - юго-западный, З - западный, СЗ - северо-западный.
Видимость - горизонтальная дальность видимости в метрах или километрах. При видимости от 1 до 10 км при отсутствии осадков обычно наблюдается дымка, при ухудшении видимости до 1 км и менее - туман. В сухую погоду видимость может ухудшаться дымом, пылью или мглою.
Явления - указаны атмосферные явления, наблюдавшиеся в срок или в последний час перед сроком; фигурными скобками обозначены явления, наблюдавшиеся между сроками (за 1-3 часа до срока); квадратными скобками обозначены град или гололедные отложения с указанием их диаметра в мм.
Облачность - указаны через наклонную черту общая и нижняя облачность в баллах и высота нижней границы облаков в метрах; квадратными скобками обозначены формы облаков: Ci - перистые, Cs - перисто-слоистые, Cc - перисто-кучевые, Ac - высококучевые, As - высокослоистые, Sc - слоисто-кучевые, Ns - слоисто-дождевые, Cu - кучевые, Cb - кучево-дождевые. Подробнее классификацию облаков см. в Атласе облаков (PDF).
T - Температура воздуха - температура, измеренная на высоте 2 м над землей.
Td - Температура точки росы - температура, при понижении до которой содержащийся в воздухе водяной пар достигнет насыщения.
f - Относительная влажность воздуха - влажноcть воздуха, измеренная на высоте 2 м над землей.
Te - Эффективная температура - температура, которую ощущает одетый по сезону человек в тени. Характеристика душности погоды. При расчете учитывается влияние влажности воздуха и скорости ветра на теплоощущения человека.
Tes - Эффективная температура на солнце - температура, которую ощущает человек, с поправкой на солнечный нагрев. Характеристика знойности погоды. Зависит от высоты солнца над горизонтом, облачности и скорости ветра. Ночью, в пасмурную погоду, а также при ветре 12 м/с и более поправка равна нулю.
P - Атмосферное давление - приведенное к уровню моря атмосферное давление.
Po - Атмосферное давление - измеренное на уровне метеостанции атмосферное давление.
Tmin - Минимальная температура - минимум температуры воздуха на высоте 2 м над землей.
Tmax - Максимальная температура - максимум температуры воздуха на высоте 2 м над землей.
R - Количество осадков - Количество выпавших осадков за период времени, мм. При наведении курсора мыши на число - период времени, за который выпало указанное количество осадков.
R24 - Количество осадков - Количество выпавших осадков за 24 часа, мм.
S - Снежный покров - Высота снежного покрова, см. При наведении курсора мыши на число - состояние снежного покрова и степень покрытия местности в баллах.